Location: Eurasberg
(48.3353°N, 11.0839°E)
Time: 11:16:29
(UTC+00:00)

Lacrosse 5 rocket - Pass Details

Date: 18 January 2026
Orbit: 401 x 482 km, 57.0° (Epoch: 11 February)

Event Time Altitude Azimuth Distance (km) Brightness Sun altitude
Exits shadow 05:20:25 20° 336° (NNW) 1,204 2.7 -16.1°
Maximum altitude 05:22:00 26° 14° (NNE) 1,005 2.6 -15.8°
Drops below altitude 10° 05:25:14 10° 72° (ENE) 1,681 4.7 -15.3°
Sets 05:27:39 0° 86° (E) 2,557 6.2 -14.9°
